Regional Weather Roundup
Issued by NWS Charleston, WV

Home | Current Version | Previous Version | Text Only | Print | Product List | Glossary Off
Versions: 1 2 3 4 5 6 7 8 9 10 11 12 13 14 15 16 17 18 19 20 21 22 23 24 25 26 27 28 29 30 31 32 33 34 35 36 37 38 39 40 41 42 43 44 45 46 47 48 49 50

000
ASUS41 KRLX 041410
RWRRLX
West Virginia Regional Weather Roundup
National Weather Service Charleston WV
1000 AM EDT FRI SEP 04 2015

Note: "fair" indicates few or no clouds below 12,000 feet with no
significant weather and/or obstructions to visibility.

WVZ003-041500-
Northern Panhandle of West Virginia

CITY           SKY/WX    TMP DP  RH WIND       PRES   REMARKS
WHEELING       PTSUNNY   72  64  76 CALM      30.11R
$$

WVZ009-041500-
Northwest West Virginia

CITY           SKY/WX    TMP DP  RH WIND       PRES   REMARKS
PARKERSBURG    MOSUNNY   74  66  76 VRB5      30.11S
$$

WVZ006-041500-
Western West Virginia

CITY           SKY/WX    TMP DP  RH WIND       PRES   REMARKS
HUNTINGTON     SUNNY     73  67  81 VRB3      30.07S
$$

WVZ015-041500-
West Central West Virginia

CITY           SKY/WX    TMP DP  RH WIND       PRES   REMARKS
CHARLESTON     PTSUNNY   71  68  90 E7        30.09S FOG
$$

WVZ022-031-041500-
North Central West Virginia

CITY           SKY/WX    TMP DP  RH WIND       PRES   REMARKS
CLARKSBURG     SUNNY     73  67  81 CALM      30.11R
MORGANTOWN     SUNNY     75  65  70 NW3       30.12R
$$

WVZ025-035-042-045-041500-
Southern West Virginia

CITY           SKY/WX    TMP DP  RH WIND       PRES   REMARKS
BECKLEY        SUNNY     74  66  76 N6        30.15S
LOGAN            N/A     72  72 100 CALM      30.11S
BLUEFIELD      SUNNY     75  64  68 W3        30.17S
LEWISBURG      FOG       66  64  94 CALM      30.15S VSB 1/2
$$

WVZ047-041500-
Northern Mountains of West Virginia

CITY           SKY/WX    TMP DP  RH WIND       PRES   REMARKS
ELKINS         CLOUDY    66  64  93 CALM      30.15R FOG
$$

WVZ052-041500-
Eastern Panhandle of West Virginia

CITY           SKY/WX    TMP DP  RH WIND       PRES   REMARKS
MARTINSBURG    SUNNY     78  68  71 VRB3      30.05S HAZE
PETERSBURG     SUNNY     72  68  86 CALM      30.10R
$$


USA.gov is the U.S. government's official web portal to all federal, state and local government web resources and services.